Location: Doncaster
(53.5158°N, 1.1327°W)
Time: 23:09:02
(UTC+01:00)

Daily predictions for brighter satellites

Satellite Brightness Start Highest point End
(mag) Time Altitude Azimuth Time Altitude Azimuth Time Altitude Azimuth
STARLINK-1205 3.6 22:09:38 10° W 22:13:48 85° S 22:17:58 10° E
STARLINK-1203 3.6 22:10:13 10° WSW 22:14:22 65° SSE 22:18:33 10° E
STARLINK-1237 3.6 22:12:01 10° WSW 22:16:08 66° SSE 22:20:16 10° E
SAR-Lupe-2 3.6 22:15:03 10° NNE 22:18:39 67° ESE 22:22:14 10° S
STARLINK-1235 3.0 22:15:29 10° W 22:18:45 65° SSW 22:22:00 10° ESE
STARLINK-1218 3.6 22:14:37 10° W 22:18:47 85° S 22:22:56 10° E
NOSS 2-2 (C) 3.8 22:15:30 10° SSW 22:18:49 35° SE 22:22:34 10° ENE
Cosmos 1766 3.5 22:15:04 10° N 22:19:03 62° ENE 22:23:01 10° SSE
Cosmos 1943 Rocket 2.9 22:14:35 10° S 22:19:32 35° ESE 22:24:34 10° NE
NOSS 8 (F) 4.1 22:17:38 10° SW 22:20:44 82° SE 22:23:51 10° NE
STARLINK-1202 3.6 22:16:57 10° WSW 22:21:05 68° SSE 22:25:13 10° E
NOSS 3-2 (A) 4.1 22:15:10 10° NW 22:22:27 77° SW 22:30:45 10° SE
ATLAS 2AS CENTAUR R/B 4.1 22:17:45 10° SSE 22:23:43 24° ESE 22:29:41 10° ENE
STARLINK-1254 3.6 22:19:37 10° W 22:23:47 85° S 22:27:56 10° E
Cosmos 2297 3.7 22:19:39 10° SSW 22:25:19 73° ESE 22:31:03 10° NE
ERS-1 Rocket 3.0 22:20:20 10° SSE 22:25:23 86° ENE 22:30:28 10° NNW
Cosmos 2082 Rocket 3.9 22:21:38 10° NW 22:26:20 27° WSW 22:30:59 10° SSW
Cosmos 371 Rocket 4.2 22:22:10 10° SW 22:26:57 55° WNW 22:31:47 10° NNE
Lacrosse 4 Rocket 4.4 22:25:53 10° NNW 22:27:55 13° N 22:29:56 10° NE
STARLINK-1231 3.6 22:24:35 10° W 22:28:45 85° S 22:32:55 10° E
STARLINK-1228 3.3 22:25:45 10° W 22:29:15 61° SSW 22:32:43 10° ESE
STARLINK-1246 3.6 22:26:54 10° WSW 22:31:03 72° SSE 22:35:11 10° E
Cosmos 1544 Rocket 4.4 22:27:28 10° N 22:31:31 37° ENE 22:35:33 10° SE
Cosmos 968 Rocket 3.9 22:27:19 10° NNW 22:32:25 54° ENE 22:37:26 10° SE
Terra 2.0 22:27:52 10° SSE 22:32:35 66° ENE 22:37:20 10° N
STARLINK-1232 3.6 22:29:33 10° W 22:33:42 85° S 22:37:53 10° E
USA 238 DEB 4.0 22:27:56 10° NW 22:35:02 68° SW 22:42:23 10° SSE
USA 238 4.0 22:28:02 10° NW 22:35:07 68° SW 22:42:30 10° SSE
STARLINK-1224 3.6 22:31:52 10° WSW 22:36:00 74° SSE 22:40:09 10° E
STARLINK-1208 3.6 22:34:32 10° W 22:38:41 84° S 22:42:51 10° E
Aureole 2 Rocket 2.7 22:36:33 10° SW 22:39:33 56° WNW 22:42:25 10° NNE
Cosmos 2369 Rocket 2.8 22:34:26 10° S 22:39:33 36° ESE 22:44:40 10° NE
ERBS 3.2 22:36:58 10° W 22:40:12 50° NNW 22:43:29 10° ENE
STARLINK-1225 3.6 22:36:52 10° WSW 22:41:00 76° S 22:45:09 10° E
Meteor 1-23 Rocket 4.4 22:36:00 10° SSW 22:41:42 80° WNW 22:47:21 10° NNE
Cosmos 1674 Rocket 4.4 22:38:49 10° SSW 22:43:06 54° WNW 22:47:29 10° N
STARLINK-1271 3.6 22:39:32 10° W 22:43:41 83° S 22:47:50 10° E
BREEZE-M DEB (TANK) 4.2 22:28:32 10° SW 22:44:21 48° SSE 22:48:40 10° E
STARLINK-1234 3.3 22:41:51 10° W 22:45:11 52° SSW 22:48:27 10° ESE
Cosmos 1378 Rocket 4.0 22:40:55 10° SSW 22:45:17 65° WNW 22:49:40 10° N
STARLINK-1209 3.4 22:42:19 10° W 22:45:34 49° SSW 22:48:41 11° SE
STARLINK-1230 3.6 22:41:49 10° WSW 22:45:57 77° S 22:50:07 10° E
Cosmos 1092 Rocket 4.0 22:41:17 10° S 22:47:23 70° E 22:53:31 10° NNE
STARLINK-1154 3.6 22:44:32 10° W 22:48:41 82° S 22:52:50 10° E
STARLINK-1243 3.5 22:46:49 10° WSW 22:50:57 79° S 22:55:07 10° E
NOSS 8 (H) 4.2 22:49:09 10° SW 22:52:12 83° NW 22:55:23 10° NE
Cosmos 1461 3.4 22:48:07 10° SW 22:52:20 67° NW 22:56:48 10° NE
Cosmos 1340 Rocket 4.5 22:49:32 10° N 22:52:54 24° ENE 22:56:15 10° ESE
Cosmos 1110 Rocket 4.1 22:47:57 10° SSW 22:53:08 81° WNW 22:58:21 10° NNE
STARLINK-1197 3.6 22:49:29 10° W 22:53:39 81° S 22:57:47 10° E
Meteor 1-22 Rocket 4.5 22:49:35 10° NNW 22:55:31 74° W 23:01:11 10° S
Cosmos 304 Rocket 4.4 22:51:01 10° SW 22:55:45 59° WNW 23:00:32 10° NNE
STARLINK-1236 3.6 22:51:46 10° WSW 22:55:54 80° S 23:00:04 10° E
Cosmos 1805 4.1 22:53:32 10° NNW 22:57:19 47° W 23:01:05 10° SSW
Cosmos 1503 Rocket 4.3 22:52:05 10° NNW 22:57:22 62° ENE 23:02:16 12° SE
MTI 4.2 22:55:26 10° NNE 22:58:28 42° E 23:00:59 14° S
STARLINK-1198 3.6 22:54:27 10° W 22:58:36 80° S 23:02:45 10° ESE
STARLINK-60 4.2 22:56:16 10° SSW 22:58:43 21° SE 23:01:10 10° E
Cosmos 1470 3.1 22:55:03 10° N 22:58:53 54° ENE 23:02:05 14° SSE
EXPRESS MD2 4.1 22:56:43 10° SW 23:00:16 48° SSE 23:07:15 10° E
Cosmos 1953 3.5 22:59:15 10° N 23:02:50 31° ENE 23:06:00 12° SE
ATLAS CENTAUR R/B 3.1 23:01:17 13° SE 23:03:03 16° ESE 23:05:39 10° ENE
STARLINK-1199 3.6 22:59:27 10° W 23:03:37 78° S 23:07:46 10° ESE
Cosmos 2278 Rocket 4.3 22:59:21 10° WSW 23:04:22 31° NW 23:09:26 10° NNE
STARLINK-1269 3.6 23:01:43 10° W 23:05:52 82° S 23:10:02 10° E
Cosmos 1975 Rocket 3.0 23:01:42 10° S 23:06:08 80° E 23:10:33 10° NNE
Okean 2 3.4 23:03:33 10° S 23:07:42 89° WNW 23:11:54 10° N
STARLINK-1210 3.6 23:04:26 10° W 23:08:35 77° S 23:12:43 10° ESE
Cosmos 1331 Rocket 4.3 23:03:46 10° SW 23:08:55 69° WNW 23:14:08 10° NNE
STARLINK-1200 3.6 23:06:41 10° W 23:10:50 83° S 23:15:00 10° E
STARLINK-1219 3.5 23:09:22 10° W 23:13:31 75° S 23:17:39 10° ESE
STARLINK-1192 3.6 23:11:41 10° W 23:15:51 84° S 23:20:00 10° E
Cosmos 1842 3.2 23:13:06 10° S 23:16:59 89° E 23:20:54 10° NNE
Cosmos 1354 Rocket 4.1 23:12:01 10° NNW 23:17:21 77° ENE 23:21:51 15° SSE
USA 215 3.4 23:11:24 10° ESE 23:17:58 81° NNE 23:24:32 10° WNW
Cosmos 1758 3.4 23:14:23 10° N 23:18:28 76° ENE 23:21:40 16° SSE
STARLINK-1211 3.5 23:14:22 10° W 23:18:31 73° SSW 23:22:39 10° ESE
Cosmos 1486 Rocket 4.3 23:13:21 10° NNW 23:18:36 62° WSW 23:23:04 14° S
S3M 4.2 23:12:28 10° N 23:18:36 62° ENE 23:23:53 14° SSE
SL-4 R/B 3.2 23:17:53 10° E 23:18:51 12° ENE 23:19:49 10° NE
Cosmos 1025 Rocket 3.6 23:15:54 15° SSE 23:19:05 41° E 23:23:08 10° NNE
SL-4 R/B 3.1 23:15:07 10° SSW 23:19:22 32° SSE 23:23:40 10° E
Cosmos 1302 Rocket 4.0 23:14:32 10° SSW 23:19:51 86° ESE 23:25:12 10° NNE
STARLINK-1244 3.6 23:16:39 10° W 23:20:49 85° S 23:24:58 10° E
Cosmos 1242 Rocket 2.6 23:19:18 14° S 23:22:22 67° E 23:26:03 10° NNE
STARLINK-1212 3.6 23:20:04 10° W 23:22:58 36° SSW 23:24:43 19° SSE
STARLINK-1105 3.6 23:20:34 10° W 23:23:28 36° SSW 23:25:10 20° SSE
STARLINK-1245 3.6 23:19:20 10° W 23:23:28 71° SSW 23:27:36 10° ESE
SL-27 R/B 3.7 23:20:20 10° NW 23:23:37 34° WSW 23:26:22 13° SSW
CENTAUR R/B 3.4 23:15:59 10° NW 23:23:47 64° SW 23:31:20 14° SSE
STARLINK-1247 3.6 23:21:25 10° W 23:24:20 36° SSW 23:26:03 20° SSE
STARLINK-1227 3.6 23:21:55 10° W 23:24:48 35° SSW 23:26:28 20° SSE
STARLINK-1226 3.6 23:22:47 10° W 23:25:41 35° SSW 23:27:20 20° SSE
STARLINK-1138 3.6 23:21:38 10° W 23:25:47 85° S 23:29:57 10° E
STARLINK-1215 3.6 23:23:42 10° W 23:26:35 35° SSW 23:28:13 20° SSE
NOSS 2-2 (D) 3.6 23:23:29 10° SW 23:27:08 71° NW 23:31:31 10° NE
ATLAS 3B R/B 2.7 23:21:32 10° NW 23:28:19 88° NE 23:35:00 11° SE
STARLINK-1217 3.7 23:25:31 10° W 23:28:23 34° SSW 23:29:57 21° SSE
STARLINK-1233 3.6 23:24:19 10° W 23:28:27 69° SSW 23:32:35 10° ESE
STARLINK-29 4.3 23:28:57 20° SSE 23:29:04 20° SE 23:31:28 10° E
STARLINK-1229 3.7 23:26:24 10° W 23:29:18 34° SSW 23:30:50 21° SSE
Cosmos 292 Rocket 3.8 23:25:13 10° SSW 23:30:01 70° ESE 23:34:53 10° NNE
STARLINK-1270 3.7 23:27:20 10° W 23:30:12 33° SSW 23:31:44 21° SSE
COSMOS 2487 2.7 23:27:04 10° NNW 23:30:32 61° ENE 23:32:56 18° SE
Cosmos 2026 Rocket 4.1 23:24:14 10° SSW 23:30:33 82° W 23:36:59 10° N
STARLINK-1143 3.6 23:26:35 10° W 23:30:45 85° S 23:34:54 10° E
Cosmos 1553 Rocket 4.0 23:25:11 10° NNW 23:31:32 87° W 23:36:50 15° S
Cosmos 2263 4.3 23:26:06 10° SSW 23:31:35 60° ESE 23:37:08 10° NE
STARLINK-1189 3.7 23:29:07 10° W 23:31:59 33° SSW 23:33:26 21° SSE
Cosmos 1455 Rocket 3.8 23:28:17 10° NNW 23:32:29 47° W 23:36:14 12° SSW
NOSS 3-2 (C) 4.4 23:25:34 10° NW 23:32:43 53° SW 23:39:33 15° SSE
STARLINK-1188 3.7 23:30:01 10° W 23:32:53 32° SSW 23:34:18 21° SSE
STARLINK-1204 3.6 23:29:17 10° W 23:33:24 67° SSW 23:37:31 10° ESE
STARLINK-1187 3.9 23:32:20 10° W 23:35:08 29° SSW 23:36:25 21° SSE
STARLINK-1191 3.8 23:32:28 10° W 23:35:17 31° SSW 23:36:36 22° SSE
STARLINK-1241 3.5 23:31:36 10° W 23:35:46 85° S 23:39:56 10° E
STARLINK-1221 3.8 23:33:25 10° W 23:36:13 31° SSW 23:37:30 22° SSE
STARLINK-1222 3.8 23:34:17 10° W 23:37:04 31° SSW 23:38:20 22° SSE
Cosmos 2228 4.3 23:34:04 10° N 23:37:52 31° ENE 23:41:02 13° SE
STARLINK-1214 3.8 23:35:12 10° W 23:38:00 30° SSW 23:39:14 22° SSE
SeaSat 1 3.3 23:33:38 10° NE 23:38:03 31° ESE 23:41:04 17° SSE
STARLINK-1238 3.6 23:34:18 10° W 23:38:25 65° SSW 23:42:31 10° ESE
Cosmos 1271 Rocket 2.7 23:36:14 16° S 23:39:15 73° E 23:43:13 10° NNE
STARLINK-1239 3.5 23:36:35 10° W 23:40:45 85° S 23:44:55 10° E
Cosmos 1992 Rocket 4.1 23:37:34 13° S 23:42:04 59° ESE 23:47:12 10° NNE
Cosmos 1726 2.3 23:38:37 10° N 23:42:21 65° ENE 23:44:47 20° SSE
STARLINK-1201 3.6 23:39:17 10° W 23:43:23 63° SSW 23:47:25 10° ESE
Cosmos 1867 3.8 23:38:22 10° NW 23:43:44 57° SW 23:47:45 17° SSE
NOSS 2-2 (E) 4.4 23:40:39 10° WSW 23:44:20 50° NNW 23:48:51 10° NE
Cosmos 1833 4.5 23:38:50 10° NW 23:44:22 58° WSW 23:48:39 17° S
Cosmos 2297 Rocket 3.7 23:39:31 10° NNW 23:44:36 32° NE 23:49:39 10° ESE
NOSS 3-4 (A) 3.7 23:39:39 10° SSW 23:45:22 48° SE 23:51:29 10° NE
NOSS 3-4 (C) 3.7 23:39:45 10° SSW 23:45:28 48° SE 23:51:35 10° NE
STARLINK-1240 3.5 23:41:32 10° W 23:45:42 85° S 23:49:51 10° E
JB-3 4.5 23:42:56 10° NNE 23:47:08 81° WNW 23:50:43 13° SSW
Meteor 1-21 4.3 23:42:30 10° SSW 23:48:07 78° WNW 23:53:46 10° NNE
STARLINK-1206 3.6 23:44:15 10° W 23:48:21 60° SSW 23:52:11 11° ESE
Cosmos 1655 Rocket 4.1 23:43:51 15° S 23:49:01 68° E 23:55:16 10° NNE
Cosmos 1707 2.7 23:46:54 18° S 23:49:42 77° E 23:53:37 10° NNE
STARLINK-1216 3.5 23:46:30 10° W 23:50:40 85° S 23:54:49 10° E
STARLINK-1205 3.7 23:49:13 10° W 23:53:18 58° SSW 23:56:57 13° ESE
STARLINK-1203 3.6 23:49:55 10° W 23:54:08 84° S 23:58:22 10° E
STARLINK-1235 4.4 23:52:04 10° W 23:54:43 22° SSW 23:55:28 21° SSW
STARLINK-1237 3.5 23:51:31 10° W 23:55:41 84° S 23:59:51 10° E
SJ 16-02 3.6 23:52:56 10° N 23:56:09 19° NE 23:59:21 10° E
